This is the latest recevied weather packets stored in our database for station/object KB4JHU-15. If no packets are shown the sender has not sent any weather packets the latest 10 day(s).
| Time | Temp. | Humidity | Pressure | Rain* | Wind** | Luminosity | Snow |
|---|---|---|---|---|---|---|---|
| 1778141283 | 12.78° C | 96% | - | 0.76 mm | - | - | - |
| 1778139482 | 12.78° C | 96% | - | 0.51 mm | - | - | - |
| 1778137681 | 13.33° C | 96% | - | 0.51 mm | - | - | - |
| 1778135880 | 12.78° C | 96% | - | 0.25 mm | - | - | - |
| 1778134079 | 13.33° C | 96% | - | 0 mm | - | - | - |
| 1778132278 | 12.78° C | 96% | - | 0 mm | - | - | - |
| 1778130477 | 12.78° C | 96% | - | 0 mm | - | - | - |
| 1778128676 | 13.33° C | 96% | - | 0 mm | - | - | - |
| 1778126876 | 13.33° C | 96% | - | 0 mm | - | - | - |
| 1778125074 | 13.33° C | 96% | - | 0 mm | - | - | - |
| 1778123273 | 13.89° C | 98% | - | 0 mm | - | - | - |
| 1778121473 | 13.89° C | 98% | - | 0 mm | - | - | - |
| 1778119671 | 13.89° C | 97% | - | 0 mm | - | - | - |
| 1778117870 | 13.89° C | 98% | - | 0 mm | - | - | - |
| 1778116069 | 13.33° C | 96% | - | 0 mm | - | - | - |
| 1778114268 | 13.89° C | 96% | - | 0 mm | - | - | - |
| 1778112467 | 13.33° C | 96% | - | 0.25 mm | - | - | - |
| 1778110666 | 13.33° C | 96% | - | 0.25 mm | - | - | - |
| 1778108865 | 13.89° C | 96% | - | 0.76 mm | - | - | - |
| 1778107064 | 13.89° C | 96% | - | 3.05 mm | - | - | - |
| 1778105263 | 15° C | 96% | - | 3.3 mm | - | - | - |
| 1778103462 | 15.56° C | 96% | - | 1.78 mm | - | - | - |
| 1778101661 | 16.67° C | 95% | - | 1.27 mm | - | - | - |
| 1778099860 | 17.78° C | 96% | - | 0.76 mm | - | - | - |
| 1778098060 | 17.78° C | 95% | - | 1.02 mm | - | - | - |
* Rain latest hour (hover to see other rain measurements)
** Current wind speed in m/s (hover to see current wind gust speed)